Location: Audinghen
(50.8518°N, 1.6129°E)
Time: 10:22:52
(UTC+00:00)

Okean 1-7 Rocket - Pass Details

Date: 07 August 2020
Orbit: 617 x 648 km, 82.5° (Epoch: 20 September)

Event Time Altitude Azimuth Distance (km) Brightness Sun altitude
Rises 02:24:24 0° 349° (N) 2,907 7.7 -15.7°
Reaches altitude 10° 02:26:38 10° 350° (N) 1,998 6.8 -15.5°
Maximum altitude 02:31:04 88° 73° (ENE) 630 3.5 -15.1°
Enters shadow 02:35:05 13° 171° (S) 1,829 5.6 -14.7°
